Tracking 21470 objects as of 23-Sep-2020
HD Live streaming from Space Station
objects crossing your sky now

STARLINK-1337

Track STARLINK-1337 now!
10-day predictions
STARLINK-1337 is classified as:


NORAD ID: 45582
Int'l Code: 2020-025BD
Perigee: 555.9 km
Apogee: 557.7 km
Inclination: 53.0 °
Period: 95.6 minutes
Semi major axis: 6927 km
RCS: Unknown
Launch date: April 22, 2020
Source: United States (US)
Launch site: AIR FORCE EASTERN TEST RANGE (AFETR)
aabbcc
Your satellite tracking list
Your tracking list is empty




NASA's NSSDC Master Catalog

Two Line Element Set (TLE):
1 45582U 20025BD  20266.91667824 -.00014225 +00000-0 -95867-3 0  9996
2 45582 052.9953 027.0315 0001292 082.9867 036.8377 15.05596765001803
Source of the keplerian elements: AFSPC